When you browse on this site, cookies collect data to enhance your experience and personalize the content and advertising you see.
Visit our Privacy Policy to learn more. By continuing to use the site, you agree to this use of cookies and data.
  • In Österreich
  • Länderverzeichnis
  • Für 7 Tage
  • Wassertemperatur
  • Satellitenkarten
  • Wetterkarte
  • News
  • Widgets
  • user-avatar
    Anmelden

    Stündliche Wetter Salta

    Heute, 16 Februar, Samstag

    Zeit Temperatur Niederschläge Wind Luftdruck Luftfeuchtigkeit
    00:00 +19°C° 0 mm 1 m/S 653 mmHg 72%
    01:00 +19°C° 0 mm 1 m/S 653 mmHg 74%
    02:00 +18°C° 0 mm 1 m/S 653 mmHg 74%
    03:00 +16°C° 0 mm 0 m/S 652 mmHg 76%
    04:00 +15°C° 0 mm 0 m/S 652 mmHg 79%
    05:00 +15°C° 0 mm 0 m/S 652 mmHg 81%
    06:00 +19°C° 0 mm 1 m/S 653 mmHg 75%
    07:00 +20°C° 0 mm 1 m/S 653 mmHg 70%
    08:00 +22°C° 0 mm 1 m/S 654 mmHg 64%
    09:00 +24°C° 0 mm 1 m/S 654 mmHg 59%
    10:00 +26°C° 0 mm 2 m/S 655 mmHg 55%
    11:00 +28°C° 0 mm 2 m/S 655 mmHg 50%
    12:00 +28°C° 0 mm 2 m/S 655 mmHg 48%
    13:00 +29°C° 0 mm 2 m/S 654 mmHg 46%
    14:00 +30°C° 0 mm 2 m/S 654 mmHg 44%
    15:00 +29°C° 0 mm 2 m/S 653 mmHg 46%
    16:00 +28°C° 0 mm 2 m/S 653 mmHg 47%
    17:00 +28°C° 0 mm 2 m/S 652 mmHg 49%
    18:00 +26°C° 0 mm 2 m/S 652 mmHg 58%
    19:00 +23°C° 0 mm 1 m/S 652 mmHg 67%
    20:00 +21°C° 0 mm 1 m/S 651 mmHg 76%
    21:00 +20°C° 0 mm 1 m/S 652 mmHg 78%
    22:00 +20°C° 0 mm 1 m/S 652 mmHg 81%
    23:00 +17°C° 0 mm 0 m/S 652 mmHg 83%

    Morgen, 17 Februar, Sonntag

    Zeit Temperatur Niederschläge Wind Luftdruck Luftfeuchtigkeit
    00:00 +17°C° 0 mm 0 m/S 652 mmHg 85%
    01:00 +17°C° 0 mm 0 m/S 652 mmHg 86%
    02:00 +16°C° 0 mm 0 m/S 652 mmHg 87%
    03:00 +16°C° 0 mm 0 m/S 651 mmHg 87%
    04:00 +16°C° 0 mm 0 m/S 651 mmHg 88%
    05:00 +15°C° 0 mm 0 m/S 651 mmHg 88%
    06:00 +19°C° 0 mm 1 m/S 651 mmHg 81%
    07:00 +21°C° 0 mm 1 m/S 652 mmHg 74%
    08:00 +22°C° 0 mm 1 m/S 653 mmHg 67%
    09:00 +24°C° 0 mm 1 m/S 653 mmHg 61%
    10:00 +26°C° 0 mm 2 m/S 653 mmHg 56%
    11:00 +28°C° 0 mm 2 m/S 654 mmHg 50%
    12:00 +29°C° 0 mm 2 m/S 653 mmHg 48%
    13:00 +30°C° 0 mm 2 m/S 653 mmHg 45%
    14:00 +31°C° 0 mm 2 m/S 652 mmHg 43%
    15:00 +30°C° 0 mm 2 m/S 652 mmHg 44%
    16:00 +29°C° 0 mm 2 m/S 651 mmHg 46%
    17:00 +29°C° 0 mm 2 m/S 650 mmHg 47%
    18:00 +27°C° 0 mm 2 m/S 650 mmHg 56%
    19:00 +25°C° 0 mm 1 m/S 650 mmHg 64%
    20:00 +23°C° 0 mm 1 m/S 649 mmHg 72%
    21:00 +20°C° 0 mm 0 m/S 650 mmHg 73%
    22:00 +20°C° 0 mm 0 m/S 650 mmHg 75%
    23:00 +20°C° 0 mm 0 m/S 651 mmHg 77%

    übermorgen, 18 Februar, Montag

    Zeit Temperatur Niederschläge Wind Luftdruck Luftfeuchtigkeit
    00:00 +19°C° 0 mm 0 m/S 650 mmHg 79%
    01:00 +18°C° 0 mm 0 m/S 650 mmHg 82%
    02:00 +18°C° 0 mm 0 m/S 649 mmHg 85%
    03:00 +17°C° 0 mm 0 m/S 648 mmHg 86%
    04:00 +17°C° 0 mm 0 m/S 648 mmHg 87%
    05:00 +16°C° 0 mm 0 m/S 648 mmHg 88%
    06:00 +18°C° 0 mm 0 m/S 648 mmHg 80%
    07:00 +22°C° 0 mm 1 m/S 649 mmHg 72%
    08:00 +23°C° 0 mm 1 m/S 650 mmHg 65%
    09:00 +25°C° 0 mm 1 m/S 650 mmHg 59%
    10:00 +27°C° 0 mm 2 m/S 651 mmHg 52%
    11:00 +29°C° 0 mm 3 m/S 651 mmHg 46%
    12:00 +30°C° 0 mm 3 m/S 651 mmHg 44%
    13:00 +31°C° 0 mm 3 m/S 650 mmHg 42%
    14:00 +33°C° 0 mm 3 m/S 650 mmHg 39%
    15:00 +31°C° 0 mm 3 m/S 649 mmHg 40%
    16:00 +31°C° 0 mm 3 m/S 649 mmHg 41%
    17:00 +31°C° 0 mm 3 m/S 649 mmHg 42%
    18:00 +28°C° 0 mm 2 m/S 649 mmHg 51%
    19:00 +26°C° 0 mm 1 m/S 649 mmHg 61%
    20:00 +23°C° 0 mm 1 m/S 649 mmHg 70%
    21:00 +23°C° 0.6 mm 1 m/S 649 mmHg 74%
    22:00 +22°C° 0.6 mm 1 m/S 650 mmHg 78%
    23:00 +22°C° 0.6 mm 1 m/S 651 mmHg 82%

    19 Februar, Dienstag

    Zeit Temperatur Niederschläge Wind Luftdruck Luftfeuchtigkeit
    00:00 +21°C° 0.4 mm 1 m/S 650 mmHg 82%
    01:00 +21°C° 0.4 mm 1 m/S 650 mmHg 81%
    02:00 +21°C° 0.4 mm 1 m/S 650 mmHg 80%
    03:00 +21°C° 0.1 mm 1 m/S 650 mmHg 80%
    04:00 +21°C° 0.1 mm 1 m/S 650 mmHg 80%
    05:00 +21°C° 0.1 mm 1 m/S 650 mmHg 80%
    06:00 +22°C° 0 mm 1 m/S 651 mmHg 75%
    07:00 +24°C° 0 mm 1 m/S 651 mmHg 69%
    08:00 +23°C° 0 mm 0 m/S 652 mmHg 64%
    09:00 +27°C° 0 mm 1 m/S 653 mmHg 57%
    10:00 +29°C° 0 mm 2 m/S 653 mmHg 50%
    11:00 +30°C° 0 mm 2 m/S 653 mmHg 42%
    12:00 +31°C° 0 mm 2 m/S 653 mmHg 41%
    13:00 +32°C° 0 mm 2 m/S 652 mmHg 40%
    14:00 +32°C° 0 mm 2 m/S 652 mmHg 38%
    15:00 +32°C° 0.1 mm 2 m/S 651 mmHg 40%
    16:00 +31°C° 0.1 mm 2 m/S 650 mmHg 42%
    17:00 +30°C° 0.1 mm 2 m/S 650 mmHg 44%
    18:00 +28°C° 0.1 mm 2 m/S 650 mmHg 52%
    19:00 +26°C° 0.1 mm 1 m/S 650 mmHg 60%
    20:00 +24°C° 0.1 mm 1 m/S 650 mmHg 68%
    21:00 +23°C° 0 mm 1 m/S 650 mmHg 69%
    22:00 +23°C° 0 mm 1 m/S 650 mmHg 70%
    23:00 +22°C° 0 mm 1 m/S 650 mmHg 72%

    20 Februar, Mittwoch

    Zeit Temperatur Niederschläge Wind Luftdruck Luftfeuchtigkeit
    00:00 +22°C° 0 mm 1 m/S 650 mmHg 72%
    01:00 +21°C° 0 mm 1 m/S 650 mmHg 72%
    02:00 +21°C° 0 mm 1 m/S 649 mmHg 72%
    03:00 +21°C° 0 mm 1 m/S 649 mmHg 73%
    04:00 +20°C° 0 mm 1 m/S 649 mmHg 73%
    05:00 +20°C° 0 mm 1 m/S 649 mmHg 73%
    06:00 +22°C° 0 mm 1 m/S 649 mmHg 68%
    07:00 +23°C° 0 mm 1 m/S 650 mmHg 62%
    08:00 +25°C° 0 mm 1 m/S 651 mmHg 57%
    09:00 +27°C° 0 mm 1 m/S 651 mmHg 52%
    10:00 +29°C° 0 mm 2 m/S 652 mmHg 47%
    11:00 +31°C° 0 mm 3 m/S 652 mmHg 42%
    12:00 +31°C° 0 mm 3 m/S 651 mmHg 41%
    13:00 +33°C° 0 mm 3 m/S 651 mmHg 39%
    14:00 +34°C° 0 mm 4 m/S 650 mmHg 38%
    15:00 +34°C° 0.1 mm 4 m/S 649 mmHg 40%
    16:00 +33°C° 0.1 mm 4 m/S 649 mmHg 42%
    17:00 +33°C° 0.1 mm 4 m/S 648 mmHg 44%
    18:00 +29°C° 0 mm 3 m/S 648 mmHg 51%
    19:00 +27°C° 0 mm 2 m/S 648 mmHg 59%
    20:00 +25°C° 0 mm 1 m/S 648 mmHg 67%
    21:00 +24°C° 0 mm 1 m/S 648 mmHg 68%
    22:00 +24°C° 0 mm 1 m/S 649 mmHg 70%
    23:00 +23°C° 0 mm 1 m/S 649 mmHg 71%

    21 Februar, Donnerstag

    Zeit Temperatur Niederschläge Wind Luftdruck Luftfeuchtigkeit
    00:00 +23°C° 0.1 mm 1 m/S 649 mmHg 72%
    01:00 +23°C° 0.1 mm 1 m/S 649 mmHg 72%
    02:00 +22°C° 0.1 mm 1 m/S 649 mmHg 73%
    03:00 +22°C° 0.1 mm 1 m/S 649 mmHg 73%
    04:00 +22°C° 0.1 mm 1 m/S 648 mmHg 74%
    05:00 +22°C° 0.1 mm 1 m/S 648 mmHg 74%
    06:00 +23°C° 0 mm 1 m/S 649 mmHg 70%
    07:00 +25°C° 0 mm 1 m/S 650 mmHg 65%
    08:00 +26°C° 0 mm 1 m/S 651 mmHg 60%
    09:00 +28°C° 0 mm 1 m/S 652 mmHg 56%
    10:00 +30°C° 0 mm 2 m/S 652 mmHg 52%
    11:00 +31°C° 0 mm 3 m/S 652 mmHg 48%
    12:00 +33°C° 0 mm 3 m/S 652 mmHg 46%
    13:00 +34°C° 0 mm 3 m/S 652 mmHg 44%
    14:00 +35°C° 0 mm 3 m/S 651 mmHg 42%
    15:00 +34°C° 0.1 mm 3 m/S 651 mmHg 44%
    16:00 +33°C° 0.1 mm 3 m/S 651 mmHg 46%
    17:00 +33°C° 0.1 mm 3 m/S 650 mmHg 48%
    18:00 +30°C° 0.2 mm 2 m/S 651 mmHg 55%
    19:00 +28°C° 0.2 mm 1 m/S 651 mmHg 62%
    20:00 +26°C° 0.2 mm 1 m/S 651 mmHg 69%
    21:00 +25°C° 0.6 mm 1 m/S 651 mmHg 72%
    22:00 +24°C° 0.6 mm 1 m/S 652 mmHg 74%
    23:00 +24°C° 0.6 mm 1 m/S 652 mmHg 77%
    Mehr zeigen